TimeEST,TemperatureF,Dew PointF,Humidity,Sea Level PressureIn,VisibilityMPH,Wind Direction,Wind SpeedMPH,Gust SpeedMPH,PrecipitationIn,Events,Conditions,WindDirDegrees,DateUTC
12:56 AM,34.0,25.0,70,30.46,10.0,NNW,6.9,-,N/A,,Clear,340,2012-11-14 05:56:00
1:56 AM,34.0,25.0,70,30.46,10.0,NNW,6.9,-,N/A,,Clear,340,2012-11-14 06:56:00
2:56 AM,32.0,24.1,73,30.48,10.0,NNW,8.1,-,N/A,,Clear,330,2012-11-14 07:56:00
3:56 AM,32.0,24.1,73,30.48,10.0,NNW,9.2,-,N/A,,Clear,330,2012-11-14 08:56:00
4:56 AM,33.1,24.1,70,30.48,10.0,NNW,10.4,-,N/A,,Clear,340,2012-11-14 09:56:00
5:56 AM,33.1,24.1,70,30.49,10.0,North,11.5,-,N/A,,Clear,350,2012-11-14 10:56:00
6:56 AM,34.0,24.1,67,30.51,10.0,North,10.4,-,N/A,,Clear,350,2012-11-14 11:56:00
7:56 AM,36.0,24.1,62,30.51,10.0,North,12.7,-,N/A,,Clear,10,2012-11-14 12:56:00
8:56 AM,37.4,24.8,60,30.50,10.0,North,12.7,-,N/A,,Clear,10,2012-11-14 13:56:00
9:56 AM,41.0,26.1,55,30.52,10.0,North,10.4,-,N/A,,Clear,360,2012-11-14 14:56:00
10:56 AM,43.0,27.0,53,30.51,10.0,North,9.2,-,N/A,,Mostly Cloudy,350,2012-11-14 15:56:00
11:56 AM,45.0,27.0,49,30.48,10.0,NNE,8.1,-,N/A,,Scattered Clouds,20,2012-11-14 16:56:00
12:56 PM,46.0,28.0,50,30.47,10.0,North,4.6,-,N/A,,Partly Cloudy,360,2012-11-14 17:56:00
1:56 PM,46.9,27.0,46,30.46,10.0,North,6.9,-,N/A,,Clear,360,2012-11-14 18:56:00
2:56 PM,46.0,27.0,47,30.46,10.0,NNW,10.4,-,N/A,,Clear,340,2012-11-14 19:56:00
3:56 PM,45.0,26.1,48,30.48,10.0,NNW,5.8,-,N/A,,Clear,340,2012-11-14 20:56:00
4:56 PM,39.9,26.1,58,30.48,10.0,NNW,6.9,-,N/A,,Clear,340,2012-11-14 21:56:00
5:56 PM,39.9,26.1,58,30.47,10.0,North,9.2,-,N/A,,Clear,350,2012-11-14 22:56:00
6:56 PM,39.0,24.1,55,30.48,10.0,North,10.4,-,N/A,,Clear,350,2012-11-14 23:56:00
7:56 PM,37.0,23.0,57,30.49,10.0,North,8.1,-,N/A,,Clear,350,2012-11-15 00:56:00
8:56 PM,36.0,23.0,59,30.49,10.0,North,8.1,-,N/A,,Clear,350,2012-11-15 01:56:00
9:56 PM,37.0,21.9,54,30.46,10.0,North,8.1,-,N/A,,Clear,360,2012-11-15 02:56:00
10:56 PM,36.0,21.9,57,30.45,10.0,NNE,4.6,-,N/A,,Clear,20,2012-11-15 03:56:00
11:56 PM,34.0,21.9,61,30.46,10.0,North,5.8,-,N/A,,Clear,10,2012-11-15 04:56:00